Home > Time Zones > World Clock > Weather > Macau > Macau > Past weeks

Flag for Macau Weather past 2 weeks in Macau, Macau

Now
70 °F

Passing clouds.


Feels Like: 70 °F
Forecast: 67 / 74 °F
Wind: 8 mph from Southeast

Location: Taipa

Current Time: Mar 30, 2015 at 5:04:05 AM

Latest Report: Mar 30, 2015 at 4:00 AM


Visibility: 4 mi

Pressure: 29.92 "Hg

Humidity: 94%

Dew point: 68 °F

Location of MacauLocation

Historic Weather in Macau — Graph

°F

Macau temperature yesterday

Maximum temperature yesterday: 75 °F (at 11:30 AM)
Minimum temperature yesterday: 68 °F (at 12:00 AM)
Average temperature yesterday: 71 °F

Past Weeks' High & Low Weather Summary

 TemperatureHumidityPressure
High77 °F (Mar 18, 1:00 PM)100% (Mar 15, 4:00 AM)30.27 "Hg (Mar 15, 4:00 AM)
Low63 °F (Mar 25, 12:30 PM)61% (Mar 23, 3:00 PM)29.80 "Hg (Mar 17, 4:00 PM)
Average69 °F89%30.03 "Hg
* Reported Mar 15 4:00 AM — Mar 30 4:00 AM, Macau, Weather by CustomWeather, © 2015

Note: Actual official high and low records may vary slightly from our data, if they occured in-between our weather recording intervals... More about our weather records

Advertising

Macau weather history for previous 24 hours

 ConditionsComfort  
Time TempWeatherWind HumidityBarometerVisibility
4:00 AM
Mon, Mar 30
70 °FPassing clouds.8 mph94%29.92 "Hg4 mi
3:30 AM70 °FPassing clouds.9 mph94%29.95 "Hg4 mi
3:00 AM70 °FPassing clouds.8 mph94%29.95 "Hg4 mi
2:30 AM70 °FPassing clouds.10 mph94%29.95 "Hg4 mi
2:00 AM70 °FPassing clouds.9 mph94%29.95 "Hg4 mi
1:30 AM70 °FPassing clouds.5 mph94%29.98 "Hg4 mi
1:00 AM70 °FPassing clouds.8 mph94%29.98 "Hg4 mi
12:30 AM70 °FPassing clouds.6 mph94%29.98 "Hg4 mi
12:00 AM70 °FPassing clouds.8 mph94%29.98 "Hg4 mi
11:30 PM
Sun, Mar 29
70 °FPassing clouds.8 mph94%29.98 "Hg4 mi
11:00 PM70 °FPassing clouds.10 mph94%29.98 "Hg4 mi
10:30 PM70 °FPassing clouds.9 mph94%29.98 "Hg4 mi
10:00 PM70 °FPassing clouds.8 mph94%29.98 "Hg4 mi
9:30 PM70 °FPassing clouds.8 mph94%29.98 "Hg4 mi
9:00 PM70 °FPassing clouds.8 mph94%29.98 "Hg4 mi
8:30 PM70 °FPassing clouds.9 mph94%29.98 "Hg5 mi
8:00 PM70 °FPassing clouds.12 mph94%29.95 "Hg6 mi
7:30 PM70 °FPassing clouds.9 mph88%29.95 "Hg6 mi
7:00 PM70 °FPassing clouds.10 mph88%29.95 "Hg6 mi
6:30 PM70 °FPassing clouds.12 mph88%29.95 "Hg5 mi
6:00 PM72 °FPassing clouds.13 mph83%29.92 "Hg6 mi
5:30 PM72 °FPassing clouds.13 mph83%29.92 "HgN/A
5:00 PM73 °FPassing clouds.10 mph78%29.95 "Hg6 mi
4:30 PM73 °FPassing clouds.10 mph83%29.95 "Hg6 mi
4:00 PM73 °FPassing clouds.12 mph78%29.92 "HgN/A
3:30 PM73 °FPassing clouds.10 mph83%29.95 "HgN/A
3:00 PM73 °FPassing clouds.9 mph83%29.95 "HgN/A
2:30 PM75 °FPassing clouds.8 mph78%29.95 "HgN/A
2:00 PM75 °FPassing clouds.8 mph78%29.98 "HgN/A
1:30 PM75 °FPassing clouds.7 mph69%29.98 "HgN/A
1:00 PM75 °FPassing clouds.6 mph74%30.01 "HgN/A
12:30 PM75 °FPassing clouds.6 mph74%30.04 "HgN/A
12:00 PM75 °FPassing clouds.6 mph74%30.04 "Hg5 mi
11:30 AM75 °FScattered clouds.6 mph74%30.07 "Hg5 mi
11:00 AM73 °FScattered clouds.5 mph78%30.07 "Hg4 mi
10:30 AM73 °FScattered clouds.3 mph83%30.07 "Hg4 mi
10:00 AM73 °FScattered clouds.6 mph78%30.07 "Hg4 mi
9:30 AM72 °FFog.5 mph88%30.07 "Hg3 mi
9:00 AM72 °FFog.6 mph83%30.04 "Hg3 mi
8:30 AM72 °FFog.6 mph88%30.04 "Hg3 mi
8:00 AM70 °FFog.5 mph88%30.04 "Hg3 mi
7:30 AM70 °FFog.3 mph88%30.01 "Hg3 mi
7:00 AM68 °FFog.3 mph94%30.01 "Hg3 mi
6:30 AM68 °FFog.1 mph94%30.01 "Hg3 mi
6:00 AM68 °FPassing clouds.3 mph94%30.01 "Hg4 mi
5:30 AM68 °FPassing clouds.2 mph94%29.98 "Hg4 mi
Weather by CustomWeather, © 2015

See weather overviewHow to use our weather pages